Weather History for Grand Forks, ND

Change the Weather History Date:

Thursday, October 4, 2012

  Actual Average Record
Temperature  
Mean Temperature 37 °F 49 °F  
Max Temperature 40 °F 61 °F 85 °F (1960)
Min Temperature 33 °F 37 °F 21 °F (1988)
Degree Days  
Heating Degree Days 28 16  
Month to date heating degree days 58 63  
Since 1 July heating degree days 339 414  
Cooling Degree Days 0 0  
Month to date cooling degree days 0 0  
Year to date cooling degree days 572 378  
Moisture  
Dew Point 33 °F    
Average Humidity 88    
Maximum Humidity 100    
Minimum Humidity 75    
Precipitation  
Precipitation 0.38 in 0.07 in 0.63 in (1998)
Month to date precipitation 0.47 0.29  
Year to date precipitation 14.25 17.57  
Snow  
Snow 2.70 in 0.00 in T in (1952)
Month to date snowfall 2.7 0.1  
Since 1 July snowfall 2.7 0.1  
Since 1 September snowfall 2.7 0.1  
Snow Depth 2.00 in    
Sea Level Pressure  
Sea Level Pressure 30.05 in    
Wind  
Wind Speed 25 mph (NNW)    
Max Wind Speed 32 mph    
Max Gust Speed 41 mph    
Visibility 6 miles    
Events Fog , Rain , Snow    
T = Trace of Precipitation, MM = Missing Value Source: NWS Daily Summary

Daily Weather History Graph

Daily Weather History Graph

Search for Another Location

Airport:

Trip Planner

Search our weather history database for the weather conditions in past years. The results will help you decide how hot, cold, wet, or windy it might be!

Date:

Astronomy

Oct. 04, 2012 Rise Set
Actual Time 7:32 AM CDT 7:00 PM CDT
Civil Twilight 7:01 AM CDT 7:31 PM CDT
Nautical Twilight 6:25 AM CDT 8:07 PM CDT
Astronomical Twilight 5:49 AM CDT 8:43 PM CDT
Moon 9:16 PM CDT (10/4) 12:11 PM CDT (10/4)
Length of Visible Light 12h 29m
Length of Day
11h 27m
Waning Gibbous, 82% of the Moon is Illuminated
Oct 4
Waning Gibbous
Oct 8
Last Quarter
Oct 15
New
Oct 21
First Quarter
Oct 29
Full

Hourly Weather History & Observations

Time (CDT) Temp. Windchill Dew Point Humidity Pressure Visibility Wind Dir Wind Speed Gust Speed Precip Events Conditions
12:13 AM 41.0 °F 31.1 °F 37.4 °F 87% 30.01 in 10.0 mi North 23.0 mph 29.9 mph 0.00 in Rain Light Rain
12:53 AM 41.0 °F 30.2 °F 37.9 °F 89% 29.99 in 10.0 mi North 27.6 mph 33.4 mph 0.00 in Rain Light Rain
1:53 AM 37.9 °F 26.6 °F 36.0 °F 93% 29.98 in 10.0 mi North 25.3 mph 34.5 mph 0.06 in Rain Light Rain
2:41 AM 35.6 °F 24.0 °F 33.8 °F 93% 29.96 in 10.0 mi North 23.0 mph 31.1 mph 0.02 in Rain Light Rain
2:53 AM 35.1 °F 23.0 °F 33.1 °F 92% 29.98 in 5.0 mi North 24.2 mph 33.4 mph 0.03 in Snow Light Snow
3:07 AM 33.8 °F 21.6 °F 32.0 °F 93% 29.95 in 2.0 mi North 23.0 mph 32.2 mph 0.02 in Snow Light Snow
3:16 AM 33.8 °F 21.0 °F 32.0 °F 93% 29.95 in 1.2 mi North 25.3 mph 32.2 mph 0.04 in Snow Light Snow
3:45 AM 33.8 °F 20.8 °F 32.0 °F 93% 29.96 in 0.8 mi NNW 26.5 mph 34.5 mph 0.11 in Snow Light Snow
3:53 AM 33.1 °F 20.3 °F 32.0 °F 96% 29.99 in 0.8 mi NNW 24.2 mph 32.2 mph 0.13 in Snow Light Snow
4:53 AM 33.1 °F 19.6 °F 32.0 °F 96% 29.99 in 0.8 mi NNW 27.6 mph 38.0 mph 0.03 in Snow Light Snow
5:53 AM 33.1 °F 19.3 °F 32.0 °F 96% 29.99 in 0.8 mi NNW 28.8 mph 39.1 mph 0.04 in Snow Light Snow
6:53 AM 33.1 °F 19.1 °F 32.0 °F 96% 30.00 in 0.8 mi NNW 29.9 mph 34.5 mph 0.01 in Snow Light Snow
7:53 AM 33.1 °F 18.9 °F 32.0 °F 96% 29.99 in 0.8 mi NNW 31.1 mph 36.8 mph 0.01 in Snow Light Snow
8:53 AM 33.1 °F 19.3 °F 32.0 °F 96% 29.99 in 0.5 mi NNW 28.8 mph 36.8 mph 0.01 in Fog , Snow Snow
9:53 AM 34.0 °F 20.8 °F 33.1 °F 96% 30.01 in 1.5 mi NW 27.6 mph 36.8 mph 0.01 in Snow Light Snow
10:25 AM 33.8 °F 20.5 °F 33.8 °F 100% 29.98 in 2.0 mi NW 27.6 mph 38.0 mph 0.00 in Snow Light Snow
10:50 AM 33.8 °F 20.8 °F 33.8 °F 100% 29.99 in 3.0 mi NW 26.5 mph 35.7 mph N/A Snow Light Snow
10:53 AM 34.0 °F 21.0 °F 33.1 °F 96% 30.02 in 3.0 mi NW 26.5 mph 35.7 mph 0.00 in Snow Light Snow
11:53 AM 35.1 °F 21.8 °F 33.1 °F 92% 30.04 in 5.0 mi NW 29.9 mph 39.1 mph 0.01 in Snow Light Snow
12:53 PM 35.1 °F 21.6 °F 33.1 °F 92% 30.06 in 9.0 mi NW 31.1 mph 38.0 mph 0.01 in Rain Light Rain
1:53 PM 36.0 °F 23.5 °F 32.0 °F 86% 30.07 in 10.0 mi NNW 27.6 mph 34.5 mph 0.01 in Rain Light Rain
2:28 PM 37.4 °F 25.6 °F 32.0 °F 81% 30.04 in 10.0 mi NNW 26.5 mph 33.4 mph 0.00 in Rain Light Rain
2:53 PM 37.0 °F 24.9 °F 33.1 °F 86% 30.09 in 10.0 mi NNW 27.6 mph 32.2 mph 0.00 in   Overcast
3:53 PM 36.0 °F 26.3 °F 34.0 °F 93% 30.10 in 10.0 mi NNW 16.1 mph - 0.00 in Rain Light Rain
4:53 PM 37.0 °F 27.0 °F 34.0 °F 89% 30.11 in 10.0 mi NW 18.4 mph 34.5 mph 0.02 in Rain Light Rain
5:53 PM 37.9 °F 26.6 °F 34.0 °F 86% 30.13 in 10.0 mi NW 25.3 mph 34.5 mph 0.00 in   Light Drizzle
6:53 PM 37.9 °F 26.3 °F 33.1 °F 83% 30.15 in 10.0 mi NW 26.5 mph 33.4 mph 0.00 in   Light Drizzle
7:36 PM 37.4 °F 26.1 °F 32.0 °F 81% 30.12 in 10.0 mi NW 24.2 mph 32.2 mph 0.00 in   Light Drizzle
7:43 PM 37.4 °F 26.6 °F 32.0 °F 81% 30.12 in 10.0 mi NW 21.9 mph 31.1 mph 0.00 in   Light Drizzle
7:53 PM 37.4 °F 26.1 °F 32.0 °F 81% 30.12 in 10.0 mi NW 24.2 mph 31.1 mph N/A   Light Drizzle
8:53 PM 37.0 °F 26.4 °F 30.9 °F 79% 30.16 in 10.0 mi NW 20.7 mph 31.1 mph 0.00 in   Overcast
9:53 PM 36.0 °F 25.0 °F 30.0 °F 79% 30.16 in 10.0 mi NW 20.7 mph 29.9 mph N/A   Overcast
10:53 PM 36.0 °F 26.0 °F 30.0 °F 79% 30.17 in 10.0 mi WNW 17.3 mph - N/A   Overcast
11:53 PM 35.1 °F 23.5 °F 28.9 °F 78% 30.17 in 10.0 mi WNW 21.9 mph 27.6 mph N/A   Overcast